FW4272 Weather Reports


time (UTC)temp
C
wind
direction
speed
KPH
gust
KPH
rain 1hr
cm
rain 24hr
cm
rain mn
cm
humidity
%
barometer
mb
20260508153101 5 305 8.0 12.9 0.00 1.75 0.03 95 1002.1
20260508151602 5 273 9.7 14.5 0.00 1.75 0.03 95 1002.1
20260508150059 5 277 6.4 9.7 0.00 1.75 0.03 96 1002.2
20260508144607 5 283 8.0 14.5 0.00 1.75 0.03 95 1002.0
20260508143100 5 281 8.0 14.5 0.00 1.75 0.03 95 1002.2
20260508141606 5 271 8.0 12.9 0.00 1.75 0.03 95 1002.5
20260508140056 5 271 8.0 12.9 0.00 1.75 0.03 95 1002.7
20260508134554 4 274 6.4 9.7 0.00 1.75 0.03 96 1002.7
20260508133054 4 263 8.0 14.5 0.00 1.75 0.03 95 1002.7
20260508131603 4 283 8.0 12.9 0.00 1.75 0.03 95 1002.6
20260508130044 4 265 8.0 14.5 0.00 1.75 0.03 95 1002.5
20260508124538 5 246 11.3 14.5 0.00 1.75 0.03 95 1002.3
20260508123030 5 259 8.0 12.9 0.00 1.75 0.03 95 1002.0
20260508121523 5 283 6.4 9.7 0.00 1.75 0.03 95 1002.2
20260508120019 6 346 4.8 11.3 0.00 1.75 0.03 95 1002.3
20260508114510 6 350 6.4 9.7 0.00 1.75 0.03 96 1001.8
20260508113006 6 355 4.8 11.3 0.00 1.75 0.03 95 1002.1
20260508111508 7 355 3.2 9.7 0.00 1.75 0.03 96 1002.1
20260508110006 7 142 4.8 9.7 0.00 1.75 0.03 96 1002.3
20260508104505 6 142 6.4 16.1 0.00 1.75 0.03 96 1002.4
20260508103009 5 123 0.0 4.8 0.00 1.75 0.03 96 1002.4
20260508101502 5 123 6.4 9.7 0.00 1.75 0.03 96 1002.1
20260508100002 5 337 0.0 0.0 0.03 1.75 0.03 96 1002.2
20260508094600 4 337 0.0 0.0 0.03 1.75 0.03 95 1002.1
20260508093105 4 337 0.0 4.8 0.03 1.75 0.03 95 1002.1
20260508091549 4 337 3.2 4.8 0.03 1.75 0.03 95 1001.9
20260508090046 5 335 0.0 3.2 0.00 1.73 0.00 95 1002.1
20260508084542 5 335 1.6 4.8 0.00 1.73 0.00 95 1002.1
20260508083039 5 336 0.0 0.0 0.00 1.73 0.00 95 1001.7
20260508081537 5 336 0.0 0.0 0.00 1.73 0.00 95 1001.8
20260508080035 5 336 0.0 0.0 0.00 1.73 0.00 95 1001.4
20260508074533 5 336 0.0 1.6 0.00 1.73 0.00 95 1001.6
20260508073036 5 336 0.0 4.8 0.00 1.73 0.00 95 1001.7
20260508071534 5 336 3.2 4.8 0.00 1.73 0.00 95 1001.9
20260508070030 5 336 3.2 6.4 0.00 1.73 0.00 95 1001.8
20260508064533 5 339 3.2 6.4 0.00 1.73 0.00 95 1002.2
20260508063035 5 339 4.8 6.4 0.00 1.73 0.00 95 1002.0
20260508061526 5 340 1.6 6.4 0.00 1.73 0.00 95 1002.0
20260508060024 5 342 1.6 11.3 0.00 1.73 0.00 95 1002.1
20260508054522 5 348 6.4 11.3 0.00 1.73 0.00 95 1001.8
20260508053015 5 327 4.8 9.7 0.00 1.73 0.00 94 1002.0
20260508051511 5 322 3.2 8.0 0.00 1.73 0.00 94 1002.0
20260508050008 6 323 1.6 6.4 0.00 1.73 0.00 94 1001.9
20260508044502 6 323 3.2 6.4 0.00 1.73 0.00 94 1002.0
20260508043104 7 318 4.8 8.0 0.00 1.73 0.00 95 1001.9
20260508041600 7 314 3.2 6.4 0.00 1.73 0.00 94 1002.0
20260508040052 7 265 3.2 4.8 0.00 1.73 0.00 94 1002.1
20260508034547 7 264 3.2 4.8 0.00 1.73 0.00 94 1001.8
20260508033044 8 264 1.6 3.2 0.00 1.73 0.00 94 1001.8
20260508031541 8 264 3.2 4.8 0.00 1.73 0.00 94 1001.9
20260508030040 7 264 3.2 4.8 0.00 1.73 0.00 95 1001.9
20260508024533 7 265 0.0 0.0 0.00 1.73 1.73 94 1002.2
20260508023033 7 265 0.0 1.6 0.03 1.73 1.73 94 1002.1
20260508021536 7 265 1.6 3.2 0.03 1.73 1.73 94 1002.4
20260508020043 7 265 0.0 6.4 0.05 1.73 1.73 94 1001.9
20260508014532 7 264 3.2 8.0 0.05 1.73 1.73 94 1002.4
20260508013034 7 263 4.8 6.4 0.05 1.70 1.70 94 1002.7
20260508011531 7 276 6.4 11.3 0.05 1.70 1.70 93 1002.5
20260508010028 7 281 8.0 14.5 0.05 1.68 1.68 93 1002.2
20260508004523 8 273 6.4 12.9 0.05 1.68 1.68 93 1002.3
20260508003016 8 266 4.8 8.0 0.05 1.65 1.65 93 1002.2
20260508001528 9 265 6.4 16.1 0.05 1.65 1.65 92 1002.4
20260508000006 10 246 9.7 17.7 0.05 1.65 1.65 91 1002.3
20260507234503 11 229 12.9 19.3 0.03 1.63 1.63 92 1002.1
20260507233006 11 260 4.8 14.5 0.00 1.60 1.60 92 1002.0
20260507231501 11 241 3.2 6.4 0.00 1.60 1.60 92 1001.8
20260507230004 11 241 1.6 3.2 0.00 1.60 1.60 92 1001.7
20260507224603 10 241 0.0 16.1 0.00 1.60 1.60 90 1001.7
20260507223056 11 192 9.7 22.5 0.00 1.60 1.60 92 1001.5
20260507221555 11 134 14.5 25.7 0.00 1.60 1.60 92 1001.2
20260507220054 11 131 14.5 20.9 0.00 1.60 1.60 92 1001.2
20260507214559 11 140 14.5 29.0 0.00 1.60 1.60 92 1001.2
20260507213053 12 106 19.3 29.0 0.03 1.60 1.60 92 1001.3
20260507211553 12 96 19.3 33.8 0.03 1.60 1.60 92 1001.3
20260507210053 12 134 20.9 37.0 0.03 1.60 1.60 92 1001.3
20260507204556 12 129 17.7 30.6 0.03 1.60 1.60 92 1001.4
20260507203051 12 131 17.7 30.6 0.00 1.57 1.57 93 1001.0
20260507201557 11 104 20.9 30.6 0.10 1.57 1.57 93 1001.1
20260507200049 11 97 17.7 35.4 0.23 1.57 1.57 93 1000.5
20260507194547 11 96 22.5 37.0 0.25 1.57 1.57 92 1000.6
20260507193047 12 81 19.3 33.8 0.30 1.57 1.57 92 1001.4
20260507191536 12 101 17.7 27.4 0.28 1.45 1.45 92 1002.2
20260507190032 12 110 16.1 33.8 0.28 1.37 1.37 92 1002.8
20260507184530 12 99 16.1 27.4 0.41 1.32 1.32 92 1002.9
20260507183030 12 117 17.7 29.0 0.53 1.27 1.27 92 1002.8
20260507181528 12 137 22.5 40.2 0.86 1.19 1.19 92 1003.3
20260507180027 12 129 20.9 33.8 1.02 1.09 1.09 92 1003.3
20260507174535 12 144 22.5 32.2 0.91 0.91 0.91 91 1003.7
20260507173027 12 140 19.3 38.6 0.71 0.71 0.71 90 1004.2
20260507171520 12 146 27.4 45.1 0.33 0.33 0.33 89 1003.6
20260507170027 13 164 25.7 48.3 0.05 0.05 0.05 86 1003.3
20260507164517 14 145 25.7 61.2 0.00 0.00 0.00 83 1003.1
20260507163016 15 148 38.6 64.4 0.00 0.00 0.00 81 1002.9
20260507161515 15 126 38.6 64.4 0.00 0.00 0.00 80 1003.5
20260507160015 15 158 40.2 64.4 0.00 0.00 0.00 79 1003.5
20260507154512 15 135 38.6 57.9 0.00 0.00 0.00 79 1003.8